Location: Nickerson Gardens
(33.9320°N, 118.2484°W)
Time: 17:55:57
(UTC+00:00)

Cosmos 1092 Rocket - Pass Details

Date: 29 October 2020
Orbit: 955 x 994 km, 83.0° (Epoch: 23 November)

Event Time Altitude Azimuth Distance (km) Brightness Sun altitude
Rises 11:57:39 0° 173° (S) 3,621 7.0 -28.0°
Reaches altitude 10° 12:00:10 10° 169° (S) 2,682 6.4 -27.5°
Maximum altitude 12:06:09 58° 92° (E) 1,113 4.5 -26.3°
Drops below altitude 10° 12:12:14 10° 15° (NNE) 2,719 6.5 -25.0°
Sets 12:14:48 0° 11° (NNE) 3,676 7.2 -24.5°
